QPF
0.01 0.01 0.02 0.01 0.01 0.01 0.01 0.01 0.01 0.00 0.00 0.00 0.01 0.01 0.01 0.01 0.00 0.01 0.01 0.01 0.01 0.01 0.02 0.02 0.02 0.03 0.02 0.02 0.02 0.04 0.04 0.04 0.05 0.05 0.06 0.06 0.07 0.08 0.09 0.07 0.02 0.02 0.08
0.00 0.00 0.01 0.01 0.01 0.01 0.00 0.01 0.00 0.00 0.00 0.00 0.01 0.01 0.01 0.00 0.00 0.00 0.01 0.01 0.01 0.01 0.02 0.02 0.02 0.02 0.01 0.01 0.02 0.02 0.03 0.04 0.05 0.06 0.07 0.06 0.07 0.07 0.08 0.07 0.03 0.02 0.05
0.00 0.00 0.01 0.01 0.01 0.00 0.00 0.00 0.00 0.00 0.00 0.00 0.00 0.01 0.00 0.00 0.00 0.00 0.01 0.01 0.01 0.01 0.02 0.02 0.01 0.01 0.01 0.01 0.01 0.03 0.05 0.06 0.05 0.07 0.05 0.02 0.05 0.06 0.06 0.05 0.03 0.03 0.05
0.01 0.00 0.00 0.01 0.01 0.00 0.00 0.00 0.00 0.00 0.00 0.00 0.00 0.00 0.00 0.00 0.00 0.00 0.00 0.00 0.01 0.01 0.01 0.01 0.00 0.00 0.00 0.01 0.01 0.03 0.05 0.06 0.05 0.05 0.02 0.01 0.03 0.07 0.05 0.04 0.03 0.04 0.06
0.02 0.02 0.02 0.01 0.01 0.01 0.00 0.00 0.00 0.00 0.00 0.00 0.00 0.00 0.00 0.00 0.00 0.00 0.00 0.00 0.01 0.01 0.00 0.00 0.00 0.00 0.00 0.01 0.01 0.03 0.04 0.04 0.04 0.02 0.01 0.01 0.03 0.05 0.03 0.03 0.03 0.04 0.05
0.02 0.02 0.02 0.02 0.02 0.01 0.00 0.00 0.00 0.00 0.00 0.00 0.00 0.00 0.00 0.00 0.00 0.00 0.00 0.00 0.01 0.01 0.00 0.00 0.00 0.00 0.01 0.01 0.02 0.04 0.06 0.06 0.02 0.00 0.00 0.01 0.02 0.04 0.02 0.03 0.04 0.04 0.04
0.04 0.03 0.03 0.03 0.02 0.01 0.00 0.01 0.01 0.00 0.00 0.00 0.00 0.00 0.00 0.00 0.00 0.00 0.00 0.01 0.01 0.01 0.00 0.00 0.00 0.00 0.01 0.01 0.02 0.04 0.05 0.04 0.01 0.00 0.00 0.00 0.01 0.02 0.03 0.04 0.04 0.04 0.03
0.09 0.05 0.05 0.05 0.03 0.02 0.01 0.01 0.01 0.01 0.01 0.00 0.00 0.00 0.00 0.00 0.00 0.00 0.01 0.01 0.00 0.00 0.00 0.00 0.01 0.00 0.01 0.01 0.03 0.04 0.05 0.03 0.01 0.01 0.00 0.00 0.02 0.03 0.03 0.03 0.03 0.02 0.02
0.14 0.09 0.08 0.06 0.04 0.04 0.02 0.01 0.01 0.01 0.01 0.00 0.00 0.00 0.00 0.00 0.00 0.00 0.01 0.00 0.00 0.00 0.00 0.00 0.00 0.00 0.00 0.01 0.02 0.04 0.04 0.04 0.01 0.01 0.00 0.00 0.02 0.03 0.03 0.03 0.02 0.01 0.01
0.14 0.13 0.12 0.10 0.07 0.04 0.03 0.02 0.01 0.02 0.02 0.01 0.01 0.00 0.00 0.01 0.00 0.00 0.00 0.01 0.00 0.00 0.00 0.00 0.00 0.00 0.01 0.01 0.03 0.04 0.04 0.03 0.01 0.00 0.00 0.01 0.02 0.02 0.02 0.02 0.01 0.01 0.01
0.15 0.12 0.13 0.12 0.09 0.07 0.05 0.03 0.02 0.02 0.02 0.02 0.01 0.01 0.01 0.01 0.00 0.00 0.00 0.01 0.01 0.00 0.00 0.00 0.01 0.01 0.01 0.02 0.03 0.04 0.03 0.01 0.01 0.01 0.01 0.01 0.02 0.02 0.02 0.01 0.01 0.00 0.01
0.18 0.11 0.11 0.10 0.10 0.10 0.12 0.07 0.03 0.02 0.02 0.02 0.02 0.01 0.01 0.01 0.01 0.01 0.01 0.01 0.01 0.01 0.01 0.01 0.01 0.02 0.01 0.01 0.02 0.02 0.02 0.02 0.01 0.01 0.01 0.02 0.02 0.03 0.02 0.02 0.02 0.01 0.01
0.22 0.11 0.09 0.08 0.09 0.09 0.14 0.13 0.04 0.02 0.01 0.01 0.01 0.01 0.02 0.02 0.02 0.02 0.02 0.03 0.03 0.03 0.02 0.01 0.01 0.01 0.01 0.01 0.01 0.01 0.02 0.01 0.01 0.01 0.01 0.02 0.03 0.04 0.04 0.03 0.03 0.03 0.02
0.19 0.14 0.09 0.07 0.06 0.07 0.09 0.12 0.06 0.03 0.02 0.01 0.01 0.02 0.02 0.02 0.02 0.02 0.03 0.02 0.02 0.03 0.03 0.02 0.01 0.01 0.02 0.02 0.01 0.01 0.01 0.01 0.02 0.01 0.01 0.03 0.04 0.05 0.05 0.05 0.04 0.04 0.04
0.16 0.18 0.14 0.09 0.08 0.09 0.09 0.10 0.07 0.05 0.03 0.02 0.02 0.02 0.03 0.02 0.04 0.04 0.04 0.03 0.02 0.02 0.03 0.02 0.01 0.02 0.03 0.03 0.02 0.01 0.01 0.01 0.01 0.01 0.01 0.02 0.04 0.04 0.06 0.06 0.07 0.06 0.06
0.16 0.17 0.16 0.12 0.11 0.12 0.11 0.09 0.06 0.04 0.03 0.02 0.03 0.03 0.03 0.02 0.04 0.05 0.04 0.04 0.03 0.02 0.03 0.02 0.02 0.02 0.02 0.02 0.01 0.01 0.01 0.01 0.01 0.02 0.01 0.02 0.03 0.04 0.05 0.07 0.09 0.09 0.09
0.19 0.19 0.16 0.16 0.16 0.17 0.13 0.10 0.08 0.05 0.05 0.04 0.02 0.02 0.02 0.03 0.05 0.05 0.04 0.04 0.03 0.02 0.02 0.03 0.02 0.02 0.02 0.01 0.01 0.01 0.01 0.01 0.01 0.01 0.01 0.01 0.02 0.04 0.05 0.06 0.09 0.10 0.11
0.20 0.20 0.21 0.20 0.17 0.16 0.14 0.12 0.11 0.09 0.07 0.06 0.04 0.03 0.04 0.04 0.04 0.03 0.03 0.03 0.02 0.01 0.02 0.02 0.03 0.03 0.02 0.01 0.01 0.01 0.01 0.01 0.01 0.01 0.01 0.01 0.02 0.03 0.04 0.07 0.10 0.11 0.13
0.30 0.25 0.21 0.22 0.20 0.21 0.19 0.16 0.16 0.14 0.11 0.09 0.08 0.07 0.06 0.04 0.03 0.03 0.02 0.02 0.02 0.03 0.03 0.02 0.02 0.02 0.02 0.02 0.02 0.02 0.02 0.03 0.02 0.01 0.01 0.01 0.01 0.02 0.03 0.05 0.09 0.09 0.11
0.32 0.34 0.27 0.25 0.25 0.25 0.25 0.24 0.23 0.19 0.14 0.14 0.13 0.10 0.07 0.06 0.05 0.04 0.03 0.03 0.03 0.03 0.02 0.02 0.01 0.02 0.02 0.03 0.04 0.03 0.02 0.02 0.02 0.02 0.02 0.01 0.01 0.01 0.03 0.03 0.05 0.05 0.07
0.27 0.26 0.30 0.26 0.23 0.21 0.20 0.19 0.20 0.18 0.13 0.12 0.12 0.10 0.06 0.05 0.05 0.04 0.03 0.03 0.03 0.03 0.02 0.02 0.02 0.01 0.02 0.02 0.03 0.03 0.01 0.01 0.01 0.01 0.01 0.01 0.01 0.02 0.03 0.05 0.05 0.03 0.04
0.21 0.21 0.29 0.28 0.22 0.20 0.17 0.15 0.16 0.18 0.15 0.12 0.10 0.07 0.06 0.04 0.04 0.03 0.02 0.02 0.01 0.02 0.01 0.01 0.02 0.01 0.01 0.01 0.02 0.02 0.01 0.00 0.00 0.00 0.00 0.00 0.01 0.01 0.02 0.03 0.03 0.03 0.02
0.17 0.19 0.24 0.26 0.25 0.23 0.20 0.17 0.15 0.16 0.12 0.10 0.08 0.07 0.05 0.03 0.03 0.03 0.02 0.02 0.01 0.01 0.01 0.01 0.01 0.01 0.01 0.01 0.01 0.01 0.00 0.00 0.00 0.00 0.00 0.00 0.00 0.01 0.01 0.01 0.01 0.02 0.02
0.14 0.17 0.21 0.21 0.24 0.23 0.21 0.16 0.10 0.08 0.06 0.05 0.04 0.05 0.05 0.03 0.02 0.02 0.02 0.02 0.01 0.00 0.00 0.01 0.01 0.01 0.01 0.02 0.01 0.00 0.00 0.00 0.00 0.00 0.00 0.00 0.00 0.01 0.01 0.01 0.01 0.01 0.01
0.08 0.10 0.14 0.15 0.18 0.17 0.15 0.11 0.07 0.06 0.06 0.05 0.03 0.03 0.03 0.03 0.02 0.01 0.01 0.01 0.01 0.01 0.00 0.01 0.01 0.02 0.01 0.01 0.01 0.01 0.00 0.00 0.00 0.00 0.00 0.00 0.00 0.00 0.00 0.00 0.01 0.01 0.01
0.05 0.06 0.08 0.10 0.11 0.13 0.11 0.09 0.06 0.04 0.05 0.04 0.03 0.02 0.02 0.02 0.01 0.01 0.01 0.01 0.02 0.01 0.00 0.00 0.00 0.01 0.01 0.00 0.00 0.00 0.00 0.00 0.00 0.00 0.00 0.00 0.00 0.00 0.00 0.00 0.00 0.00 0.00
MSLP
1011.17 1010.94 1010.92 1011.11 1011.43 1011.80 1012.16 1012.45 1012.63 1012.72 1012.76 1012.79 1012.87 1013.01 1013.22 1013.47 1013.74 1013.97 1014.14 1014.24 1014.28 1014.27 1014.25 1014.24 1014.27 1014.34 1014.45 1014.58 1014.73 1014.87 1014.99 1015.10 1015.20 1015.31 1015.41 1015.53 1015.66 1015.81 1015.96 1016.12 1016.28 1016.46 1016.64
1010.67 1010.58 1010.68 1010.97 1011.37 1011.81 1012.21 1012.52 1012.72 1012.83 1012.90 1012.97 1013.09 1013.28 1013.53 1013.82 1014.09 1014.32 1014.47 1014.55 1014.55 1014.52 1014.48 1014.46 1014.49 1014.56 1014.68 1014.81 1014.95 1015.08 1015.20 1015.31 1015.42 1015.54 1015.66 1015.79 1015.93 1016.08 1016.22 1016.37 1016.53 1016.70 1016.89
1010.15 1010.19 1010.42 1010.81 1011.29 1011.79 1012.23 1012.57 1012.81 1012.96 1013.07 1013.19 1013.36 1013.59 1013.87 1014.16 1014.42 1014.63 1014.75 1014.79 1014.77 1014.72 1014.67 1014.65 1014.68 1014.75 1014.86 1014.99 1015.12 1015.25 1015.37 1015.50 1015.63 1015.78 1015.93 1016.09 1016.25 1016.40 1016.54 1016.68 1016.83 1016.99 1017.17
1009.72 1009.89 1010.22 1010.70 1011.25 1011.79 1012.27 1012.65 1012.93 1013.12 1013.28 1013.44 1013.65 1013.90 1014.18 1014.46 1014.71 1014.88 1014.96 1014.98 1014.94 1014.88 1014.83 1014.82 1014.86 1014.93 1015.04 1015.16 1015.28 1015.41 1015.55 1015.69 1015.86 1016.04 1016.24 1016.43 1016.61 1016.78 1016.92 1017.04 1017.18 1017.32 1017.50
1009.47 1009.73 1010.16 1010.70 1011.29 1011.87 1012.38 1012.78 1013.08 1013.30 1013.50 1013.69 1013.92 1014.19 1014.46 1014.72 1014.93 1015.07 1015.13 1015.12 1015.07 1015.02 1015.00 1015.00 1015.05 1015.14 1015.24 1015.36 1015.48 1015.61 1015.75 1015.92 1016.13 1016.35 1016.59 1016.82 1017.02 1017.19 1017.33 1017.44 1017.55 1017.68 1017.86
1009.42 1009.77 1010.25 1010.83 1011.45 1012.03 1012.54 1012.94 1013.25 1013.49 1013.71 1013.93 1014.18 1014.44 1014.71 1014.94 1015.12 1015.23 1015.27 1015.25 1015.22 1015.19 1015.19 1015.23 1015.30 1015.40 1015.50 1015.61 1015.73 1015.85 1016.01 1016.20 1016.44 1016.70 1016.98 1017.24 1017.46 1017.63 1017.75 1017.84 1017.93 1018.04 1018.21
1009.58 1009.98 1010.49 1011.08 1011.69 1012.26 1012.74 1013.12 1013.42 1013.67 1013.90 1014.14 1014.39 1014.67 1014.92 1015.15 1015.31 1015.40 1015.43 1015.42 1015.40 1015.40 1015.43 1015.50 1015.60 1015.71 1015.82 1015.92 1016.03 1016.16 1016.32 1016.53 1016.78 1017.07 1017.37 1017.65 1017.88 1018.04 1018.15 1018.21 1018.28 1018.37 1018.52
1009.86 1010.29 1010.81 1011.39 1011.97 1012.49 1012.93 1013.28 1013.57 1013.81 1014.05 1014.31 1014.58 1014.87 1015.14 1015.36 1015.51 1015.60 1015.63 1015.63 1015.63 1015.66 1015.72 1015.82 1015.94 1016.06 1016.17 1016.27 1016.37 1016.49 1016.65 1016.86 1017.13 1017.43 1017.74 1018.03 1018.25 1018.41 1018.49 1018.53 1018.57 1018.65 1018.78
1010.17 1010.60 1011.12 1011.67 1012.21 1012.68 1013.08 1013.39 1013.66 1013.90 1014.16 1014.45 1014.76 1015.07 1015.37 1015.60 1015.77 1015.86 1015.90 1015.91 1015.92 1015.96 1016.04 1016.15 1016.28 1016.41 1016.51 1016.61 1016.70 1016.81 1016.96 1017.17 1017.44 1017.74 1018.06 1018.34 1018.55 1018.70 1018.77 1018.79 1018.81 1018.87 1018.99
1010.40 1010.85 1011.35 1011.88 1012.38 1012.81 1013.16 1013.45 1013.70 1013.96 1014.24 1014.57 1014.93 1015.29 1015.62 1015.89 1016.07 1016.18 1016.22 1016.24 1016.25 1016.29 1016.37 1016.48 1016.60 1016.72 1016.82 1016.91 1016.99 1017.09 1017.23 1017.43 1017.69 1017.99 1018.29 1018.57 1018.78 1018.91 1018.98 1019.00 1019.01 1019.05 1019.17
1010.51 1010.97 1011.48 1011.99 1012.45 1012.85 1013.18 1013.45 1013.71 1013.99 1014.31 1014.69 1015.10 1015.51 1015.89 1016.20 1016.41 1016.53 1016.58 1016.59 1016.60 1016.63 1016.69 1016.78 1016.89 1016.99 1017.08 1017.15 1017.23 1017.32 1017.45 1017.63 1017.87 1018.16 1018.45 1018.71 1018.92 1019.06 1019.14 1019.16 1019.18 1019.23 1019.34
1010.49 1010.97 1011.49 1012.00 1012.45 1012.84 1013.16 1013.44 1013.71 1014.02 1014.39 1014.81 1015.27 1015.74 1016.16 1016.50 1016.74 1016.88 1016.93 1016.94 1016.94 1016.95 1016.98 1017.05 1017.14 1017.22 1017.30 1017.36 1017.42 1017.50 1017.62 1017.79 1018.01 1018.27 1018.54 1018.80 1019.01 1019.16 1019.26 1019.31 1019.35 1019.41 1019.52
1010.37 1010.88 1011.42 1011.94 1012.40 1012.80 1013.13 1013.43 1013.73 1014.08 1014.48 1014.94 1015.44 1015.94 1016.39 1016.76 1017.02 1017.18 1017.25 1017.26 1017.25 1017.24 1017.26 1017.31 1017.37 1017.44 1017.50 1017.56 1017.61 1017.68 1017.78 1017.92 1018.11 1018.35 1018.60 1018.84 1019.06 1019.23 1019.35 1019.44 1019.51 1019.59 1019.71
1010.20 1010.73 1011.30 1011.84 1012.33 1012.75 1013.11 1013.45 1013.78 1014.15 1014.58 1015.06 1015.57 1016.08 1016.55 1016.93 1017.22 1017.40 1017.49 1017.52 1017.52 1017.51 1017.53 1017.57 1017.62 1017.68 1017.73 1017.78 1017.82 1017.88 1017.96 1018.07 1018.23 1018.42 1018.64 1018.86 1019.08 1019.26 1019.41 1019.54 1019.65 1019.76 1019.89
1010.01 1010.57 1011.15 1011.71 1012.23 1012.68 1013.09 1013.47 1013.84 1014.24 1014.67 1015.15 1015.65 1016.15 1016.60 1016.99 1017.29 1017.50 1017.62 1017.69 1017.73 1017.76 1017.79 1017.84 1017.89 1017.95 1018.01 1018.05 1018.09 1018.13 1018.18 1018.26 1018.37 1018.52 1018.69 1018.88 1019.08 1019.27 1019.44 1019.60 1019.75 1019.89 1020.02
1009.84 1010.38 1010.95 1011.52 1012.07 1012.57 1013.03 1013.46 1013.87 1014.30 1014.73 1015.19 1015.66 1016.11 1016.54 1016.92 1017.23 1017.47 1017.65 1017.79 1017.89 1017.97 1018.05 1018.13 1018.21 1018.28 1018.33 1018.38 1018.41 1018.43 1018.46 1018.49 1018.56 1018.65 1018.76 1018.91 1019.07 1019.24 1019.42 1019.60 1019.76 1019.92 1020.06
1009.65 1010.14 1010.68 1011.24 1011.80 1012.35 1012.87 1013.37 1013.84 1014.30 1014.73 1015.16 1015.58 1015.99 1016.37 1016.73 1017.05 1017.34 1017.59 1017.80 1017.99 1018.15 1018.30 1018.43 1018.54 1018.63 1018.69 1018.74 1018.76 1018.77 1018.77 1018.78 1018.79 1018.82 1018.87 1018.95 1019.06 1019.20 1019.36 1019.53 1019.70 1019.86 1019.99
1009.41 1009.81 1010.27 1010.79 1011.37 1011.97 1012.57 1013.15 1013.70 1014.21 1014.66 1015.07 1015.44 1015.79 1016.13 1016.47 1016.80 1017.13 1017.45 1017.76 1018.04 1018.30 1018.52 1018.71 1018.86 1018.97 1019.05 1019.10 1019.13 1019.13 1019.11 1019.09 1019.05 1019.03 1019.02 1019.03 1019.07 1019.15 1019.27 1019.41 1019.56 1019.70 1019.83
1009.08 1009.34 1009.69 1010.16 1010.74 1011.40 1012.10 1012.79 1013.44 1014.02 1014.52 1014.92 1015.27 1015.58 1015.87 1016.18 1016.52 1016.90 1017.29 1017.69 1018.07 1018.42 1018.71 1018.95 1019.14 1019.28 1019.37 1019.43 1019.46 1019.46 1019.44 1019.40 1019.35 1019.28 1019.21 1019.15 1019.13 1019.14 1019.19 1019.27 1019.39 1019.50 1019.61
1008.63 1008.72 1008.96 1009.37 1009.94 1010.66 1011.47 1012.29 1013.07 1013.76 1014.32 1014.76 1015.10 1015.38 1015.64 1015.94 1016.29 1016.69 1017.15 1017.62 1018.09 1018.51 1018.87 1019.15 1019.37 1019.52 1019.62 1019.68 1019.73 1019.75 1019.74 1019.71 1019.65 1019.56 1019.45 1019.34 1019.24 1019.18 1019.16 1019.18 1019.24 1019.31 1019.39
1008.09 1008.01 1008.11 1008.46 1009.03 1009.82 1010.74 1011.71 1012.64 1013.46 1014.11 1014.61 1014.96 1015.24 1015.49 1015.77 1016.12 1016.55 1017.05 1017.59 1018.11 1018.59 1018.99 1019.30 1019.52 1019.68 1019.78 1019.86 1019.92 1019.97 1020.00 1019.99 1019.95 1019.87 1019.74 1019.59 1019.44 1019.31 1019.21 1019.17 1019.16 1019.19 1019.23
1007.51 1007.27 1007.26 1007.54 1008.13 1008.98 1010.01 1011.13 1012.21 1013.16 1013.93 1014.49 1014.89 1015.17 1015.42 1015.70 1016.05 1016.49 1017.02 1017.59 1018.15 1018.66 1019.07 1019.39 1019.62 1019.76 1019.86 1019.95 1020.03 1020.11 1020.18 1020.23 1020.23 1020.18 1020.06 1019.90 1019.71 1019.52 1019.37 1019.25 1019.19 1019.17 1019.18
1006.98 1006.63 1006.53 1006.76 1007.35 1008.26 1009.39 1010.63 1011.84 1012.92 1013.79 1014.43 1014.88 1015.18 1015.43 1015.71 1016.06 1016.50 1017.04 1017.62 1018.19 1018.71 1019.12 1019.43 1019.64 1019.78 1019.87 1019.96 1020.06 1020.18 1020.30 1020.41 1020.47 1020.46 1020.37 1020.22 1020.02 1019.80 1019.60 1019.43 1019.31 1019.25 1019.23
1006.59 1006.18 1006.03 1006.23 1006.83 1007.77 1008.96 1010.29 1011.60 1012.77 1013.72 1014.42 1014.90 1015.23 1015.49 1015.75 1016.10 1016.54 1017.06 1017.64 1018.21 1018.72 1019.13 1019.42 1019.61 1019.73 1019.81 1019.90 1020.01 1020.16 1020.33 1020.50 1020.62 1020.67 1020.63 1020.51 1020.32 1020.09 1019.86 1019.66 1019.50 1019.40 1019.36
1006.43 1006.01 1005.84 1006.03 1006.62 1007.57 1008.79 1010.14 1011.49 1012.71 1013.70 1014.43 1014.94 1015.27 1015.53 1015.79 1016.12 1016.55 1017.07 1017.63 1018.19 1018.69 1019.08 1019.36 1019.53 1019.63 1019.69 1019.78 1019.90 1020.07 1020.28 1020.49 1020.67 1020.78 1020.79 1020.71 1020.55 1020.34 1020.10 1019.88 1019.70 1019.57 1019.50
1006.52 1006.14 1005.99 1006.18 1006.75 1007.67 1008.86 1010.19 1011.52 1012.72 1013.71 1014.44 1014.94 1015.27 1015.52 1015.77 1016.09 1016.50 1017.00 1017.56 1018.10 1018.59 1018.97 1019.24 1019.40 1019.48 1019.54 1019.61 1019.73 1019.91 1020.13 1020.38 1020.60 1020.76 1020.82 1020.79 1020.67 1020.49 1020.26 1020.04 1019.85 1019.71 1019.62
Thickness
5783 5785 5783 5781 5779 5778 5776 5775 5774 5773 5773 5772 5772 5771 5770 5770 5769 5768 5767 5766 5765 5765 5764 5763 5763 5762 5762 5761 5760 5758 5757 5755 5754 5752 5751 5749 5747 5746 5744 5743 5742 5741 5739
5790 5786 5783 5780 5778 5776 5775 5774 5773 5772 5771 5771 5770 5769 5769 5768 5767 5766 5765 5765 5764 5763 5762 5762 5761 5760 5760 5759 5758 5756 5755 5753 5752 5750 5749 5747 5746 5744 5743 5742 5740 5739 5738
5790 5785 5782 5779 5777 5775 5773 5772 5771 5771 5770 5769 5768 5767 5767 5766 5765 5764 5764 5763 5762 5761 5760 5760 5759 5758 5757 5756 5756 5755 5753 5752 5750 5749 5747 5745 5744 5743 5742 5741 5739 5737 5736
5789 5784 5781 5778 5776 5773 5771 5770 5769 5769 5768 5767 5766 5765 5765 5764 5763 5762 5762 5761 5760 5759 5758 5758 5757 5756 5755 5754 5754 5753 5751 5750 5748 5747 5745 5743 5742 5741 5740 5739 5738 5736 5735
5786 5782 5779 5776 5774 5771 5769 5768 5767 5767 5766 5765 5764 5763 5762 5761 5761 5760 5759 5759 5758 5757 5756 5755 5755 5754 5753 5752 5751 5751 5749 5748 5746 5745 5743 5742 5741 5740 5738 5737 5736 5735 5733
5782 5779 5777 5774 5771 5769 5767 5766 5765 5765 5763 5763 5761 5760 5760 5759 5758 5757 5757 5756 5755 5755 5754 5753 5752 5751 5751 5750 5749 5749 5748 5746 5744 5743 5741 5740 5739 5738 5737 5736 5735 5733 5731
5779 5776 5774 5772 5769 5767 5766 5764 5763 5762 5761 5760 5759 5758 5757 5756 5755 5755 5754 5753 5752 5752 5750 5750 5749 5749 5748 5748 5747 5747 5746 5744 5742 5741 5739 5738 5737 5736 5735 5734 5733 5731 5730
5777 5774 5771 5769 5767 5765 5763 5762 5761 5760 5759 5758 5757 5755 5754 5753 5752 5752 5751 5750 5749 5748 5747 5747 5746 5746 5746 5745 5745 5745 5744 5742 5740 5739 5737 5736 5735 5734 5734 5732 5731 5730 5728
5773 5771 5768 5766 5764 5762 5761 5760 5759 5758 5756 5755 5754 5753 5752 5750 5749 5749 5748 5747 5746 5745 5744 5744 5743 5743 5743 5743 5743 5742 5741 5740 5738 5737 5735 5734 5733 5733 5732 5731 5730 5728 5727
5767 5767 5765 5763 5761 5760 5758 5757 5756 5755 5754 5753 5752 5750 5749 5748 5747 5746 5745 5744 5744 5743 5742 5741 5741 5741 5741 5741 5741 5740 5739 5738 5736 5735 5734 5732 5732 5731 5730 5729 5728 5727 5725
5761 5761 5761 5760 5758 5757 5755 5755 5754 5753 5752 5751 5749 5748 5747 5745 5744 5743 5742 5742 5741 5740 5739 5739 5738 5738 5738 5738 5738 5738 5737 5735 5734 5733 5732 5731 5730 5729 5728 5727 5726 5725 5724
5757 5757 5757 5756 5755 5754 5753 5752 5752 5751 5750 5749 5747 5746 5744 5743 5741 5740 5739 5739 5738 5738 5737 5736 5736 5735 5735 5735 5735 5735 5734 5733 5732 5731 5730 5729 5728 5727 5726 5725 5724 5723 5722
5756 5755 5754 5753 5752 5751 5750 5749 5748 5748 5747 5746 5744 5743 5741 5740 5738 5737 5736 5736 5735 5735 5734 5733 5733 5732 5732 5732 5732 5732 5731 5730 5729 5728 5728 5727 5726 5725 5724 5723 5722 5721 5720
5753 5752 5751 5751 5749 5748 5747 5747 5745 5745 5744 5743 5742 5741 5739 5737 5735 5734 5733 5732 5732 5731 5731 5730 5730 5730 5729 5729 5729 5729 5729 5728 5727 5726 5726 5725 5724 5723 5722 5721 5720 5719 5718
5750 5749 5749 5748 5747 5746 5745 5744 5743 5742 5741 5740 5739 5738 5737 5735 5733 5731 5730 5729 5729 5728 5728 5728 5727 5727 5726 5726 5726 5726 5726 5726 5725 5725 5724 5723 5722 5721 5720 5719 5718 5717 5716
5748 5746 5746 5745 5744 5742 5741 5741 5741 5740 5739 5737 5736 5736 5735 5733 5731 5729 5728 5727 5726 5726 5726 5725 5725 5724 5724 5724 5724 5724 5724 5723 5723 5722 5722 5721 5720 5719 5718 5718 5717 5715 5714
5746 5744 5742 5741 5741 5739 5738 5738 5737 5737 5736 5735 5734 5733 5732 5731 5729 5728 5726 5725 5725 5724 5723 5723 5723 5722 5721 5721 5721 5721 5721 5721 5721 5720 5720 5719 5718 5718 5717 5716 5715 5714 5713
5743 5741 5739 5739 5737 5736 5735 5735 5734 5733 5733 5732 5731 5731 5730 5729 5728 5727 5725 5724 5724 5723 5722 5721 5721 5719 5718 5718 5718 5718 5718 5718 5719 5719 5718 5718 5717 5716 5715 5715 5714 5713 5712
5741 5738 5737 5737 5735 5734 5733 5731 5730 5730 5729 5729 5729 5729 5728 5727 5726 5725 5724 5724 5723 5721 5721 5720 5718 5718 5716 5715 5715 5715 5716 5716 5716 5717 5716 5716 5715 5715 5714 5713 5713 5712 5711
5741 5738 5735 5735 5733 5731 5729 5727 5726 5726 5726 5726 5727 5727 5727 5726 5725 5723 5723 5722 5721 5720 5719 5718 5717 5716 5715 5714 5714 5713 5713 5714 5714 5714 5714 5714 5714 5713 5712 5712 5711 5710 5709
5738 5735 5733 5731 5730 5729 5727 5725 5723 5722 5723 5723 5724 5726 5726 5725 5723 5722 5722 5721 5720 5719 5718 5717 5716 5714 5712 5712 5710 5708 5709 5711 5712 5712 5712 5712 5712 5711 5711 5710 5709 5709 5708
5736 5733 5731 5730 5730 5730 5728 5726 5724 5722 5721 5722 5723 5723 5724 5723 5722 5722 5721 5720 5720 5718 5717 5716 5716 5713 5711 5711 5709 5704 5701 5703 5707 5709 5710 5710 5710 5709 5709 5708 5707 5707 5706
5734 5733 5732 5730 5728 5728 5727 5724 5722 5719 5718 5718 5719 5720 5721 5721 5721 5721 5720 5720 5719 5718 5716 5716 5715 5713 5710 5709 5709 5706 5700 5697 5700 5704 5706 5707 5707 5707 5706 5706 5705 5704 5704
5734 5732 5731 5729 5727 5726 5725 5723 5721 5718 5716 5717 5718 5718 5719 5719 5720 5720 5719 5719 5719 5718 5717 5716 5715 5714 5712 5708 5707 5706 5705 5704 5700 5698 5701 5703 5703 5703 5703 5703 5702 5702 5701
5735 5732 5730 5728 5725 5725 5724 5723 5721 5719 5718 5716 5716 5716 5716 5717 5718 5718 5718 5718 5718 5717 5716 5716 5715 5714 5713 5710 5708 5705 5703 5702 5701 5699 5695 5697 5699 5699 5699 5699 5699 5698 5698
5734 5732 5729 5726 5724 5724 5723 5722 5720 5718 5717 5715 5714 5713 5713 5714 5715 5716 5717 5717 5716 5716 5715 5715 5714 5713 5712 5711 5709 5707 5705 5703 5700 5698 5694 5693 5693 5694 5696 5696 5696 5696 5695